Location: Caltech
(34.1382°N, 118.1253°W)
Time: 15:23:42
(UTC-07:00)

Cosmos 2360 Rocket - Visible Passes

Search period start: 20 August 2014 00:00
Search period end: 30 August 2014 00:00
Orbit: 833 x 846 km, 71.0° (Epoch: 20 August)

Date Brightness Start Highest point End Pass type
(mag) Time Alt. Az. Time Alt. Az. Time Alt. Az.
24 Aug 3.2 05:45:31 10° S 05:50:54 50° ESE 05:56:19 10° NNE visible
25 Aug 3.3 05:30:01 10° S 05:35:20 47° ESE 05:40:42 10° NNE visible
26 Aug 3.4 05:14:31 10° S 05:19:46 43° ESE 05:25:04 10° NE visible
27 Aug 3.4 04:59:02 10° S 05:04:13 40° ESE 05:09:26 10° NE visible
28 Aug 3.5 04:43:33 10° S 04:48:40 37° ESE 04:53:48 10° NE visible
29 Aug 3.6 04:28:05 10° SSE 04:33:06 35° ESE 04:38:10 10° NE visible
